PAGEOS 1 DEB, 2256

Orbit data source: Space-Track

PAGEOS 1 DEB, 2256 is space debris in LEO originally from a launch on Fri, 24 Jun 1966 UTC launched from the Air Force Western Test Range (AFWTR). Debris objects in space refer to the collection of defunct objects orbiting the Earth. Examples of debris include non-operational satellites, rocket bodies, and fragments generated from explosions, collisions, or faulty payload assembly.

Loading next visibility...
PAGEOS 1 DEB details
Identifier
2256, 1966-056C
Orbit
LEO
Last TLE update2 days ago
Origin
Flag of USNASA LaRC (US)
ManufacturerGoodyear
MissionSpacecraft
Bus & MotorECHO CANISTER, Unknown motor
Mass9 kg wet, 9 kg dry
Launch date (UTC)
1966-06-24 (59 years ago)
Launch vehicleUnknown
Launch site
Air Force Western Test Range (AFWTR)
Object type
Payload
Rocket body
Debris
Shape & HBRHalf Sphere, Unknown HBR
Radar Cross Section0.377 m², Large (>1 m²)

Expand to show TLE details & history

TLE from 2 days ago
0 PAGEOS 1 DEB
1 02256U 66056C   25042.43979461 -.00000012  00000-0 -13613-1 0  9994
2 02256  86.9269 202.9123 0025224 193.2117 166.8030  7.93565639699545
Epoch: 2025-02-11T10:33Z
Definitive object data (Epoch: 2025-02-11T10:33:18.254Z)
Latitude-0.00004°
Longitude-97.15835°
Altitude4,267.284 km
Speed6.112 km/s
True Right ascension13h 31m 38s
True Declination0° 00' 00"
Sunlit
Object was in daylight at TLE epoch
Visualization TLE readout
Latitude-5.77933°
Longitude-97.68315°
Altitude4,267.768 km
Speed6.112 km/s
Apparent Right ascension12h 35m 46s
Apparent Declination-19° 28' 06"
Sunlit
Object is in daylight
Visualization observer readout
Local Sidereal Time22:35:03
Azimuth299.426° NW
Elevation-57.032°
Doppler factor1
Orbital elements
Apogee altitude4,263.869 km
Perigee altitude4,210.318 km
Semi-major axis10,615.231 km
Eccentricity0.0025224
Inclination86.9269°
RAAN202.9123°
Arg. of periapsis193.2117°
True anomaly166.86879°
Mean anomaly166.803°
Eccentric anomaly166.83591°
Mean motion1.98449 °/min
BSTAR-0.013613
Orbital period181.41 mins
Loading maneuver chart data...

PAGEOS 1 DEB Visibility forecast

Observer location: undefined°, undefined

Span
Click to sort rows by Start time (UTC) header in descending order
Start Az.
Max El. time (UTC)
Max El. Az.
Max El.
End time (UTC)
End Az.
41 mins2025-02-13 20:51:06.861Z1.499° NNE2025-02-13 21:12:06.861Z78.529° E37.299°2025-02-13 21:32:06.861Z148.931° SSE
38 mins2025-02-13 23:54:06.861Z351.663° N2025-02-14 00:13:06.861Z284.859° WNW37.574°2025-02-14 00:32:06.861Z218.628° SW
32 mins2025-02-14 08:16:06.861Z113.01° SE2025-02-14 08:32:06.861Z61.885° ENE26.793°2025-02-14 08:48:06.861Z12.054° NNE
43 mins2025-02-14 11:09:06.861Z186.559° SSW2025-02-14 11:30:06.861Z278.611° WNW44.244°2025-02-14 11:52:06.861Z2.053° NNE
25 mins2025-02-14 14:27:06.861Z275.59° WNW2025-02-14 14:39:06.861Z312.026° NW16.881°2025-02-14 14:52:06.861Z350.936° N
|